BAW119 EGLL-VOBL

Flight info

Callsign BAW119
Flight time 9h 24m
Altitude 35000
Route DET L6 DVR UL9 KONAN DCT KOK UL607 SPI DCT VIBOM DCT NOMBO DCT RIDAR DCT LATLO DCT OBEDI DCT BEDOX DCT ETIDA DCT EKSOL DCT UDROS/N0473F370 UM859 KARDE UN644 ROLIN DCT FOQUS DCT LAGAS DCT DISKA M737 VERCA M747 BODKA P130 DOGAM/N0483F390 P130 MAMED B449 RANAH L750 ZB G202 RK P628 VIKIT Z8 AAE/N0479F380 R458 BBB/N0478F390 Q13 BEKUT Q9 RIKBU RIKBU7F
Aircraft B772/H-SDE1E3FGHIJ3J4J5J6M1M2P2RWXYZ/LB1D1

Departure

Time 2026-04-30 13:28
Airport London Heathrow Airport (EGLL)

Arrival

Time 2026-04-30 22:52
Airport Kempegowda International Airport Bengaluru (VOBL)
Time Latitude Longitude Altitude Speed Heading
2026-04-30 13:04 51.46979 -0.48017 99 ft 0 kts 270°
2026-04-30 13:13 51.46979 -0.48016 99 ft 0 kts 270°
2026-04-30 13:16 51.46979 -0.48014 99 ft 1 kts 270°
2026-04-30 13:17 51.46979 -0.47966 99 ft 2 kts 270°
2026-04-30 13:17 51.46979 -0.47942 99 ft 2 kts 269°
2026-04-30 13:17 51.46988 -0.47897 99 ft 2 kts 230°
2026-04-30 13:18 51.46999 -0.47881 99 ft 2 kts 212°
2026-04-30 13:18 51.47028 -0.47868 99 ft 2 kts 178°
2026-04-30 13:18 51.47042 -0.47869 99 ft 2 kts 178°
2026-04-30 13:19 51.47049 -0.47870 99 ft 0 kts 179°
2026-04-30 13:22 51.47037 -0.47870 99 ft 4 kts 179°
2026-04-30 13:22 51.46983 -0.47869 99 ft 10 kts 180°
2026-04-30 13:22 51.46830 -0.47867 99 ft 10 kts 180°
2026-04-30 13:23 51.46769 -0.47874 99 ft 8 kts 205°
2026-04-30 13:23 51.46742 -0.48069 99 ft 10 kts 270°
2026-04-30 13:24 51.46742 -0.48313 99 ft 12 kts 270°
2026-04-30 13:24 51.46741 -0.48615 99 ft 10 kts 270°
2026-04-30 13:25 51.46684 -0.48750 99 ft 8 kts 180°
2026-04-30 13:25 51.46576 -0.48776 99 ft 10 kts 197°
2026-04-30 13:26 51.46479 -0.48710 99 ft 5 kts 103°
2026-04-30 13:26 51.46478 -0.48689 99 ft 0 kts 89°
2026-04-30 13:27 51.46478 -0.48128 99 ft 80 kts 90°
2026-04-30 13:28 51.46527 -0.43038 776 ft 183 kts 89°
2026-04-30 13:28 51.45953 -0.39167 1823 ft 198 kts 124°
2026-04-30 13:28 51.44981 -0.37442 2236 ft 215 kts 128°
2026-04-30 13:29 51.43553 -0.33019 3475 ft 233 kts 109°
2026-04-30 13:29 51.42719 -0.27937 4564 ft 243 kts 105°
2026-04-30 13:30 51.41627 -0.19919 5567 ft 247 kts 105°
2026-04-30 13:31 51.40884 -0.14515 6005 ft 252 kts 105°
2026-04-30 13:31 51.39735 -0.06195 7961 ft 257 kts 105°
2026-04-30 13:32 51.38948 -0.00526 9203 ft 263 kts 104°
2026-04-30 13:32 51.38148 0.05217 10403 ft 267 kts 104°
2026-04-30 13:33 51.37457 0.11484 10665 ft 309 kts 101°
2026-04-30 13:33 51.36688 0.18814 10695 ft 356 kts 101°
2026-04-30 13:34 51.36267 0.22783 11203 ft 363 kts 101°
2026-04-30 13:34 51.34978 0.34791 13385 ft 365 kts 101°
2026-04-30 13:35 51.34541 0.38827 14005 ft 368 kts 101°
2026-04-30 13:35 51.33659 0.46986 15176 ft 378 kts 101°
2026-04-30 13:36 51.32770 0.55346 16404 ft 385 kts 101°
2026-04-30 13:36 51.32321 0.59599 17003 ft 389 kts 101°
2026-04-30 13:36 51.31417 0.68200 18160 ft 396 kts 101°
2026-04-30 13:37 51.30961 0.72581 18736 ft 399 kts 101°
2026-04-30 13:37 51.30053 0.81350 19993 ft 403 kts 101°
2026-04-30 13:38 51.29172 0.89811 21116 ft 408 kts 101°
2026-04-30 13:38 51.28701 0.94305 21697 ft 411 kts 101°
2026-04-30 13:38 51.27750 1.03321 22800 ft 416 kts 101°
2026-04-30 13:39 51.26772 1.12541 23797 ft 422 kts 101°
2026-04-30 13:39 51.25780 1.21805 24781 ft 428 kts 101°
2026-04-30 13:40 51.25269 1.26553 25256 ft 431 kts 101°
2026-04-30 13:40 51.24764 1.31235 25709 ft 434 kts 101°
2026-04-30 13:40 51.24242 1.36042 26158 ft 437 kts 101°
2026-04-30 13:40 51.23724 1.40811 26654 ft 439 kts 101°
2026-04-30 13:41 51.23195 1.45640 27099 ft 441 kts 101°
2026-04-30 13:41 51.22680 1.50333 27507 ft 444 kts 101°
2026-04-30 13:41 51.22155 1.55080 27883 ft 447 kts 101°
2026-04-30 13:41 51.21612 1.59983 28225 ft 451 kts 101°
2026-04-30 13:42 51.21059 1.64958 28562 ft 455 kts 101°
2026-04-30 13:42 51.20503 1.69936 28971 ft 457 kts 102°
2026-04-30 13:42 51.19385 1.79891 29911 ft 457 kts 102°
2026-04-30 13:43 51.18825 1.84851 30452 ft 455 kts 102°
2026-04-30 13:43 51.18261 1.89824 30989 ft 453 kts 102°
2026-04-30 13:43 51.17698 1.94765 31465 ft 452 kts 102°
2026-04-30 13:43 51.17135 1.99696 31910 ft 451 kts 102°
2026-04-30 13:44 51.16566 2.04660 32375 ft 450 kts 102°
2026-04-30 13:44 51.16005 2.09546 32842 ft 448 kts 101°
2026-04-30 13:44 51.15396 2.14347 33255 ft 447 kts 106°
2026-04-30 13:44 51.14497 2.19044 33664 ft 445 kts 108°
2026-04-30 13:45 51.12612 2.28300 34421 ft 443 kts 108°
2026-04-30 13:45 51.11651 2.32996 34802 ft 442 kts 108°
2026-04-30 13:45 51.10701 2.37625 35105 ft 441 kts 108°
2026-04-30 13:46 51.09868 2.41680 35223 ft 443 kts 108°
2026-04-30 13:46 51.07932 2.51062 35238 ft 444 kts 108°
2026-04-30 13:47 51.06051 2.60142 35233 ft 442 kts 108°
2026-04-30 13:47 51.04110 2.69458 35243 ft 445 kts 109°
2026-04-30 13:48 51.02600 2.76667 35236 ft 443 kts 109°
2026-04-30 13:48 51.00195 2.88091 35226 ft 443 kts 109°
2026-04-30 13:49 50.98262 2.97232 35226 ft 443 kts 109°
2026-04-30 13:49 50.96309 3.06423 35224 ft 443 kts 109°
2026-04-30 13:50 50.94348 3.15612 35227 ft 445 kts 109°
2026-04-30 13:50 50.91470 3.29022 35231 ft 443 kts 109°
2026-04-30 13:51 50.89430 3.38475 35230 ft 444 kts 108°
2026-04-30 13:51 50.87462 3.47553 35237 ft 444 kts 108°
2026-04-30 13:52 50.85447 3.56805 35243 ft 444 kts 108°
2026-04-30 13:52 50.83436 3.65998 35244 ft 445 kts 109°
2026-04-30 13:53 50.81477 3.74917 35247 ft 444 kts 109°
2026-04-30 13:53 50.79457 3.84071 35244 ft 444 kts 109°
2026-04-30 13:54 50.77459 3.93087 35250 ft 446 kts 109°
2026-04-30 13:54 50.75430 4.02202 35245 ft 445 kts 109°
2026-04-30 13:55 50.73410 4.11237 35242 ft 444 kts 109°
2026-04-30 13:55 50.71512 4.19692 35248 ft 445 kts 109°
2026-04-30 13:56 50.69427 4.28940 35247 ft 445 kts 109°
2026-04-30 13:56 50.67334 4.38186 35253 ft 444 kts 108°
2026-04-30 13:57 50.65252 4.47340 35256 ft 446 kts 109°
2026-04-30 13:57 50.63193 4.56352 35261 ft 445 kts 109°
2026-04-30 13:58 50.60052 4.70033 35264 ft 444 kts 109°
2026-04-30 13:59 50.58102 4.78479 35267 ft 445 kts 109°
2026-04-30 13:59 50.55854 4.88176 35262 ft 443 kts 109°
2026-04-30 14:00 50.53767 4.97144 35269 ft 446 kts 109°
2026-04-30 14:00 50.50606 5.10648 35265 ft 444 kts 109°
2026-04-30 14:01 50.48471 5.19724 35276 ft 446 kts 109°
2026-04-30 14:01 50.46323 5.28816 35277 ft 445 kts 109°
2026-04-30 14:02 50.44169 5.37892 35272 ft 444 kts 109°
2026-04-30 14:02 50.42007 5.46962 35275 ft 445 kts 109°
2026-04-30 14:03 50.39846 5.55997 35273 ft 446 kts 109°
2026-04-30 14:03 50.37682 5.65031 35271 ft 445 kts 109°
2026-04-30 14:04 50.35501 5.74099 35278 ft 447 kts 109°
2026-04-30 14:04 50.33398 5.82806 35282 ft 447 kts 109°
2026-04-30 14:05 50.31211 5.91825 35279 ft 445 kts 109°
2026-04-30 14:05 50.29012 6.00862 35283 ft 447 kts 109°
2026-04-30 14:06 50.25465 6.14300 35285 ft 447 kts 111°
2026-04-30 14:07 50.21783 6.27481 35284 ft 448 kts 111°
2026-04-30 14:08 50.18030 6.40838 35281 ft 446 kts 111°
2026-04-30 14:08 50.14380 6.53758 35283 ft 447 kts 111°
2026-04-30 14:09 50.11906 6.62477 35298 ft 446 kts 111°
2026-04-30 14:10 50.08357 6.74927 35324 ft 447 kts 111°
2026-04-30 14:10 50.05824 6.83774 35318 ft 446 kts 111°
2026-04-30 14:11 50.03294 6.92576 35323 ft 447 kts 112°
2026-04-30 14:11 50.00761 7.01359 35321 ft 448 kts 112°
2026-04-30 14:12 49.98201 7.10203 35322 ft 447 kts 111°
2026-04-30 14:12 49.95723 7.18733 35324 ft 447 kts 111°
2026-04-30 14:13 49.93261 7.27178 35320 ft 447 kts 111°
2026-04-30 14:13 49.90688 7.35970 35320 ft 449 kts 111°
2026-04-30 14:14 49.88164 7.44564 35318 ft 448 kts 111°
2026-04-30 14:14 49.85634 7.53150 35313 ft 449 kts 111°
2026-04-30 14:15 49.83026 7.61966 35302 ft 449 kts 111°
2026-04-30 14:15 49.80587 7.70186 35312 ft 450 kts 112°
2026-04-30 14:16 49.78369 7.77636 35311 ft 451 kts 112°
2026-04-30 14:16 49.75690 7.86600 35305 ft 451 kts 111°
2026-04-30 14:17 49.73071 7.95335 35309 ft 450 kts 111°
2026-04-30 14:17 49.70435 8.04095 35307 ft 451 kts 111°
2026-04-30 14:18 49.67784 8.12870 35307 ft 450 kts 111°
2026-04-30 14:18 49.63776 8.26085 35311 ft 451 kts 111°
2026-04-30 14:19 49.59773 8.39208 35313 ft 452 kts 111°
2026-04-30 14:20 49.57082 8.47992 35319 ft 452 kts 111°
2026-04-30 14:20 49.53021 8.61188 35319 ft 451 kts 111°
2026-04-30 14:21 49.50392 8.69695 35328 ft 453 kts 111°
2026-04-30 14:22 49.46451 8.82392 35327 ft 453 kts 111°
2026-04-30 14:22 49.42423 8.95305 35316 ft 453 kts 111°
2026-04-30 14:23 49.36953 9.12753 35304 ft 453 kts 111°
2026-04-30 14:24 49.32869 9.25797 35314 ft 455 kts 110°
2026-04-30 14:25 49.27512 9.42796 35309 ft 455 kts 110°
2026-04-30 14:26 49.23502 9.55445 35319 ft 454 kts 110°
2026-04-30 14:27 49.19357 9.68453 35334 ft 455 kts 111°
2026-04-30 14:27 49.16601 9.77044 35327 ft 456 kts 112°
2026-04-30 14:28 49.11259 9.89161 35334 ft 464 kts 119°
2026-04-30 14:28 49.07543 9.97170 35331 ft 463 kts 119°
2026-04-30 14:29 49.00206 10.12904 35314 ft 464 kts 119°
2026-04-30 14:31 48.90871 10.32746 35299 ft 463 kts 119°
2026-04-30 14:31 48.85342 10.44433 35295 ft 464 kts 119°
2026-04-30 14:32 48.79759 10.56182 35290 ft 463 kts 119°
2026-04-30 14:33 48.75994 10.64078 35293 ft 464 kts 119°
2026-04-30 14:33 48.70303 10.75970 35310 ft 466 kts 120°
2026-04-30 14:34 48.66505 10.83875 35321 ft 465 kts 120°
2026-04-30 14:34 48.62697 10.91781 35327 ft 465 kts 119°
2026-04-30 14:35 48.56953 11.03671 35326 ft 466 kts 119°
2026-04-30 14:36 48.53129 11.11559 35324 ft 469 kts 119°
2026-04-30 14:36 48.49308 11.19413 35327 ft 465 kts 119°
2026-04-30 14:37 48.45555 11.27107 35323 ft 465 kts 119°
2026-04-30 14:37 48.41724 11.34940 35315 ft 465 kts 119°
2026-04-30 14:38 48.37893 11.42749 35307 ft 466 kts 119°
2026-04-30 14:38 48.34177 11.50302 35306 ft 463 kts 119°
2026-04-30 14:39 48.30350 11.58061 35296 ft 465 kts 119°
2026-04-30 14:39 48.26496 11.65848 35301 ft 463 kts 119°
2026-04-30 14:40 48.20777 11.77370 35314 ft 466 kts 120°
2026-04-30 14:40 48.16896 11.85157 35309 ft 465 kts 120°
2026-04-30 14:41 48.12984 11.92984 35300 ft 465 kts 120°
2026-04-30 14:41 48.09206 12.00522 35296 ft 464 kts 119°
2026-04-30 14:42 48.05320 12.08255 35298 ft 465 kts 120°
2026-04-30 14:42 48.01437 12.15959 35300 ft 464 kts 120°
2026-04-30 14:43 47.97523 12.23705 35301 ft 466 kts 119°
2026-04-30 14:43 47.93604 12.31440 35290 ft 469 kts 120°
2026-04-30 14:44 47.89841 12.38838 35273 ft 466 kts 120°
2026-04-30 14:44 47.85924 12.46525 35257 ft 468 kts 120°
2026-04-30 14:45 47.81958 12.54284 35246 ft 467 kts 120°
2026-04-30 14:45 47.77992 12.62023 35248 ft 471 kts 120°
2026-04-30 14:46 47.74155 12.69489 35244 ft 473 kts 120°
2026-04-30 14:46 47.70269 12.77350 35274 ft 470 kts 115°
2026-04-30 14:47 47.68544 12.81511 35436 ft 468 kts 113°
2026-04-30 14:47 47.66825 12.85667 35313 ft 473 kts 117°
2026-04-30 14:47 47.63179 12.93667 35273 ft 468 kts 117°
2026-04-30 14:48 47.59513 13.01746 35290 ft 473 kts 117°
2026-04-30 14:48 47.55899 13.09722 35294 ft 473 kts 117°
2026-04-30 14:49 47.52248 13.17779 35261 ft 472 kts 116°
2026-04-30 14:49 47.48579 13.25871 35229 ft 478 kts 117°
2026-04-30 14:50 47.43105 13.37898 35237 ft 473 kts 117°
2026-04-30 14:51 47.37501 13.50176 35248 ft 476 kts 117°
2026-04-30 14:52 47.31931 13.62326 35250 ft 476 kts 117°
2026-04-30 14:52 47.26428 13.74281 35223 ft 480 kts 118°
2026-04-30 14:53 47.20753 13.86554 35199 ft 480 kts 118°
2026-04-30 14:54 47.13141 14.02931 35178 ft 480 kts 119°
2026-04-30 14:55 47.07568 14.14861 35198 ft 483 kts 119°
2026-04-30 14:56 46.99916 14.31155 35253 ft 483 kts 119°
2026-04-30 14:57 46.94118 14.43439 35256 ft 484 kts 119°
2026-04-30 14:58 46.86492 14.59514 35258 ft 484 kts 119°
2026-04-30 14:58 46.80856 14.71337 35262 ft 487 kts 120°
2026-04-30 15:00 46.71335 14.91189 35242 ft 488 kts 121°
2026-04-30 15:01 46.63552 15.07314 35243 ft 486 kts 121°
2026-04-30 15:01 46.57676 15.19428 35255 ft 489 kts 121°
2026-04-30 15:02 46.53733 15.27526 35264 ft 489 kts 121°
2026-04-30 15:03 46.43939 15.47543 35307 ft 491 kts 122°
2026-04-30 15:04 46.34081 15.67544 35333 ft 491 kts 123°
2026-04-30 15:06 46.24655 15.88036 35341 ft 488 kts 114°
2026-04-30 15:07 46.18630 16.05491 35346 ft 488 kts 114°
2026-04-30 15:08 46.12533 16.22944 35342 ft 489 kts 114°
2026-04-30 15:09 46.04808 16.44850 35344 ft 490 kts 114°
2026-04-30 15:10 45.98605 16.62299 35340 ft 490 kts 114°
2026-04-30 15:11 45.89238 16.88434 35331 ft 492 kts 115°
2026-04-30 15:13 45.81397 17.10120 35313 ft 493 kts 115°
2026-04-30 15:14 45.70203 17.40776 35310 ft 494 kts 116°
2026-04-30 15:17 45.55739 17.79882 35288 ft 497 kts 116°
2026-04-30 15:19 45.42654 18.14783 35305 ft 497 kts 117°
2026-04-30 17:39 41.49530 44.95085 37143 ft 511 kts 98°
2026-04-30 17:41 41.43884 45.31659 37158 ft 503 kts 125°
2026-04-30 17:42 41.39549 45.38879 37162 ft 498 kts 135°
2026-04-30 17:43 41.27809 45.55777 37150 ft 497 kts 136°
2026-04-30 17:44 41.21350 45.66215 37138 ft 502 kts 122°
2026-04-30 17:44 41.17484 45.79150 37140 ft 505 kts 111°
2026-04-30 17:47 41.07053 46.18475 37130 ft 503 kts 111°
2026-04-30 17:48 40.98868 46.49043 37140 ft 504 kts 111°
2026-04-30 17:50 40.89436 46.83953 37151 ft 506 kts 111°
2026-04-30 17:52 40.82243 47.10144 37152 ft 506 kts 111°
2026-04-30 17:54 40.71260 47.49422 37165 ft 508 kts 111°
2026-04-30 17:56 40.61369 47.84365 37171 ft 512 kts 112°
2026-04-30 17:58 40.54398 48.10847 37175 ft 512 kts 109°
2026-04-30 18:00 40.45694 48.46212 37181 ft 510 kts 109°
2026-04-30 18:01 40.40191 48.68227 37177 ft 509 kts 109°
2026-04-30 18:02 40.33545 48.94534 37175 ft 505 kts 109°
2026-04-30 18:04 40.26836 49.20635 37189 ft 507 kts 110°
2026-04-30 18:06 40.17797 49.55453 37203 ft 506 kts 110°
2026-04-30 18:08 40.09927 49.85407 37189 ft 503 kts 110°
2026-04-30 18:10 40.00752 50.19875 37197 ft 504 kts 111°
2026-04-30 18:11 39.92669 50.49853 37195 ft 503 kts 111°
2026-04-30 18:13 39.86818 50.71331 37195 ft 503 kts 112°
2026-04-30 18:14 39.80946 50.92707 37195 ft 503 kts 112°
2026-04-30 18:15 39.73853 51.18292 37197 ft 503 kts 112°
2026-04-30 18:16 39.69099 51.35302 37191 ft 503 kts 112°
2026-04-30 18:17 39.66696 51.43853 37190 ft 504 kts 112°
2026-04-30 18:18 39.63960 51.56961 37198 ft 509 kts 102°
2026-04-30 18:18 39.62714 51.66015 37191 ft 507 kts 103°
2026-04-30 18:19 39.61459 51.75016 37175 ft 508 kts 103°
2026-04-30 18:19 39.60194 51.83999 37184 ft 509 kts 103°
2026-04-30 18:20 39.58917 51.92992 37183 ft 508 kts 103°
2026-04-30 18:20 39.57636 52.01948 37281 ft 508 kts 103°
2026-04-30 18:21 39.56341 52.10943 37182 ft 506 kts 103°
2026-04-30 18:21 39.55040 52.19928 37184 ft 507 kts 103°
2026-04-30 18:22 39.53738 52.28855 37180 ft 507 kts 103°
2026-04-30 18:22 39.51764 52.42307 37181 ft 507 kts 103°
2026-04-30 18:23 39.50444 52.51241 37181 ft 509 kts 103°
2026-04-30 18:23 39.49119 52.60155 37183 ft 508 kts 103°
2026-04-30 18:24 39.47095 52.73676 37173 ft 508 kts 104°
2026-04-30 18:25 39.45747 52.82627 37168 ft 508 kts 104°
2026-04-30 18:25 39.43713 52.96031 37179 ft 508 kts 104°
2026-04-30 18:26 39.41658 53.09466 37192 ft 510 kts 104°
2026-04-30 18:27 39.39587 53.22896 37192 ft 510 kts 104°
2026-04-30 18:28 39.37492 53.36367 37180 ft 510 kts 104°
2026-04-30 18:28 39.35392 53.49773 37187 ft 509 kts 104°
2026-04-30 18:29 39.32560 53.67682 37180 ft 508 kts 105°
2026-04-30 18:30 39.29716 53.85479 37173 ft 509 kts 105°
2026-04-30 18:31 39.27545 53.98941 37168 ft 510 kts 105°
2026-04-30 18:32 39.25366 54.12345 37173 ft 511 kts 105°
2026-04-30 18:33 39.23183 54.25680 37168 ft 509 kts 105°
2026-04-30 18:33 39.20972 54.39082 37171 ft 509 kts 105°
2026-04-30 18:34 39.18750 54.52449 37170 ft 507 kts 105°
2026-04-30 18:35 39.17265 54.61313 37263 ft 512 kts 105°
2026-04-30 18:35 39.16507 54.65823 37590 ft 510 kts 106°
2026-04-30 18:35 39.15758 54.70269 37938 ft 507 kts 106°
2026-04-30 18:36 39.14256 54.79146 38334 ft 510 kts 107°
2026-04-30 18:36 39.13504 54.83577 38557 ft 511 kts 106°
2026-04-30 18:36 39.11977 54.92535 39000 ft 511 kts 106°
2026-04-30 18:37 39.11265 54.96697 39151 ft 512 kts 106°
2026-04-30 18:37 39.09730 55.05636 39169 ft 514 kts 107°
2026-04-30 18:38 39.08219 55.14399 39168 ft 512 kts 107°
2026-04-30 18:38 39.06663 55.23378 39153 ft 513 kts 107°
2026-04-30 18:39 39.05107 55.32316 39160 ft 512 kts 107°
2026-04-30 18:39 39.03542 55.41259 39157 ft 512 kts 107°
2026-04-30 18:40 39.01973 55.50180 39159 ft 514 kts 107°
2026-04-30 18:40 39.00402 55.59087 39153 ft 512 kts 107°
2026-04-30 18:41 38.98824 55.68001 39147 ft 514 kts 107°
2026-04-30 18:41 38.97232 55.76952 39152 ft 513 kts 108°
2026-04-30 18:42 38.95636 55.85884 39151 ft 513 kts 107°
2026-04-30 18:42 38.93230 55.99266 39152 ft 514 kts 107°
2026-04-30 18:45 38.84273 56.48283 39157 ft 517 kts 108°
2026-04-30 18:46 38.82611 56.57243 39153 ft 517 kts 107°
2026-04-30 18:46 38.80946 56.66181 39152 ft 517 kts 108°
2026-04-30 18:47 38.79255 56.75212 39142 ft 518 kts 108°
2026-04-30 18:47 38.77580 56.84121 39134 ft 517 kts 108°
2026-04-30 18:48 38.75883 56.93103 39133 ft 517 kts 108°
2026-04-30 18:48 38.74162 57.02174 39128 ft 519 kts 108°
2026-04-30 18:49 38.72449 57.11164 39135 ft 519 kts 108°
2026-04-30 18:49 38.70739 57.20091 39132 ft 520 kts 108°
2026-04-30 18:50 38.69003 57.29120 39133 ft 520 kts 108°
2026-04-30 18:50 38.67273 57.38076 39141 ft 520 kts 108°
2026-04-30 18:51 38.65516 57.47128 39140 ft 523 kts 108°
2026-04-30 18:51 38.63755 57.56168 39135 ft 522 kts 108°
2026-04-30 18:52 38.61944 57.65155 39133 ft 519 kts 114°
2026-04-30 18:52 38.59215 57.73610 39130 ft 516 kts 119°
2026-04-30 18:53 38.56296 57.81995 39137 ft 516 kts 120°
2026-04-30 18:53 38.53375 57.90348 39139 ft 516 kts 120°
2026-04-30 18:54 38.50444 57.98701 39134 ft 515 kts 120°
2026-04-30 18:54 38.47485 58.07101 39138 ft 518 kts 120°
2026-04-30 18:55 38.44523 58.15487 39136 ft 516 kts 120°
2026-04-30 18:55 38.40040 58.27998 39131 ft 515 kts 124°
2026-04-30 18:56 38.34610 58.39729 39141 ft 513 kts 127°
2026-04-30 18:57 38.29069 58.51471 39134 ft 514 kts 127°
2026-04-30 18:57 38.25365 58.59299 39133 ft 513 kts 127°
2026-04-30 18:58 38.19815 58.70995 39119 ft 516 kts 128°
2026-04-30 18:59 38.14235 58.82715 39118 ft 515 kts 128°
2026-04-30 19:00 38.06797 58.98273 39114 ft 515 kts 128°
2026-04-30 19:01 37.99323 59.13831 39116 ft 517 kts 128°
2026-04-30 19:02 37.93680 59.25529 39116 ft 515 kts 128°
2026-04-30 19:03 37.85737 59.40594 39128 ft 512 kts 134°
2026-04-30 19:04 37.77165 59.54828 39127 ft 513 kts 134°
2026-04-30 19:05 37.68522 59.69125 39115 ft 513 kts 134°
2026-04-30 19:06 37.59880 59.83360 39127 ft 513 kts 135°
2026-04-30 19:06 37.53338 59.94096 39125 ft 514 kts 135°
2026-04-30 19:07 37.46797 60.04798 39123 ft 513 kts 135°
2026-04-30 19:08 37.38035 60.19077 39113 ft 515 kts 135°
2026-04-30 19:09 37.31437 60.29789 39116 ft 517 kts 135°
2026-04-30 19:09 37.27027 60.36931 39112 ft 515 kts 135°
2026-04-30 19:10 37.18209 60.51165 39104 ft 515 kts 135°
2026-04-30 19:11 37.11543 60.61883 39108 ft 516 kts 135°
2026-04-30 19:12 37.07225 60.68810 39079 ft 516 kts 136°
2026-04-30 19:12 37.02757 60.75958 39069 ft 517 kts 136°
2026-04-30 19:13 36.94015 60.90398 39063 ft 520 kts 132°
2026-04-30 19:14 36.89878 60.97837 39065 ft 522 kts 132°
2026-04-30 19:14 36.85734 61.05237 39075 ft 524 kts 132°
2026-04-30 19:15 36.81530 61.12715 39083 ft 520 kts 133°
2026-04-30 19:15 36.75251 61.23822 39083 ft 523 kts 133°
2026-04-30 19:16 36.71041 61.31244 39082 ft 525 kts 133°
2026-04-30 19:17 36.64690 61.42408 39085 ft 523 kts 133°
2026-04-30 19:17 36.58292 61.53466 39087 ft 527 kts 133°
2026-04-30 19:18 36.51824 61.64472 39089 ft 525 kts 133°
2026-04-30 19:19 36.47560 61.71714 39077 ft 523 kts 134°
2026-04-30 19:19 36.41049 61.82740 39076 ft 526 kts 134°
2026-04-30 19:20 36.36725 61.90049 39078 ft 526 kts 134°
2026-04-30 19:21 36.30205 62.01041 39071 ft 527 kts 135°
2026-04-30 19:22 36.21473 62.15705 39069 ft 527 kts 134°
2026-04-30 19:23 36.08293 62.37722 39071 ft 527 kts 134°
2026-04-30 19:24 36.01689 62.48701 39072 ft 528 kts 135°
2026-04-30 19:25 35.90619 62.67025 39057 ft 532 kts 135°
2026-04-30 19:26 35.81789 62.81573 39074 ft 530 kts 135°
2026-04-30 19:27 35.75126 62.92509 39077 ft 531 kts 135°
2026-04-30 19:28 35.68403 63.03508 39079 ft 535 kts 135°
2026-04-30 19:29 35.59535 63.17968 39091 ft 532 kts 135°
2026-04-30 19:30 35.50493 63.32465 39107 ft 533 kts 135°
2026-04-30 19:31 35.41345 63.47024 39118 ft 533 kts 135°
2026-04-30 19:31 35.34535 63.57823 39134 ft 535 kts 135°
2026-04-30 19:32 35.29962 63.65060 39136 ft 535 kts 136°
2026-04-30 19:32 35.25422 63.72270 39117 ft 533 kts 136°
2026-04-30 19:33 35.20841 63.79533 39125 ft 536 kts 136°
2026-04-30 19:33 35.16305 63.86715 39161 ft 534 kts 135°
2026-04-30 19:34 35.11704 63.93979 39187 ft 537 kts 135°
2026-04-30 19:35 35.04827 64.04812 39197 ft 537 kts 135°
2026-04-30 19:35 35.00217 64.12055 39212 ft 537 kts 135°
2026-04-30 19:36 34.95625 64.19256 39238 ft 536 kts 135°
2026-04-30 19:36 34.88988 64.29635 39274 ft 535 kts 135°
2026-04-30 19:37 34.84377 64.36825 39325 ft 540 kts 135°
2026-04-30 19:37 34.79749 64.44035 39335 ft 534 kts 135°
2026-04-30 19:38 34.75141 64.51192 39342 ft 538 kts 135°
2026-04-30 19:38 34.70519 64.58360 39365 ft 536 kts 135°
2026-04-30 19:39 34.65884 64.65530 39375 ft 537 kts 135°
2026-04-30 19:39 34.61343 64.72546 39382 ft 534 kts 135°
2026-04-30 19:40 34.56707 64.79688 39385 ft 536 kts 135°
2026-04-30 19:40 34.52126 64.86738 39386 ft 533 kts 135°
2026-04-30 19:41 34.47470 64.93877 39387 ft 535 kts 135°
2026-04-30 19:41 34.42850 65.00935 39393 ft 536 kts 135°
2026-04-30 19:42 34.38185 65.08048 39402 ft 538 kts 135°
2026-04-30 19:42 34.33518 65.15153 39410 ft 535 kts 135°
2026-04-30 19:43 34.28880 65.22199 39420 ft 535 kts 135°
2026-04-30 19:44 34.21965 65.32677 39426 ft 535 kts 135°
2026-04-30 19:44 34.17317 65.39703 39435 ft 534 kts 135°
2026-04-30 19:45 34.12645 65.46749 39431 ft 537 kts 135°
2026-04-30 19:45 34.07987 65.53765 39434 ft 534 kts 134°
2026-04-30 19:46 34.03322 65.60789 39436 ft 535 kts 134°
2026-04-30 19:46 33.98661 65.67800 39399 ft 535 kts 135°
2026-04-30 19:47 33.93977 65.74834 39431 ft 533 kts 135°
2026-04-30 19:47 33.89389 65.81707 39422 ft 534 kts 135°
2026-04-30 19:48 33.84755 65.88637 39427 ft 536 kts 135°
2026-04-30 19:48 33.80044 65.95669 39420 ft 534 kts 135°
2026-04-30 19:49 33.75364 66.02642 39433 ft 534 kts 135°
2026-04-30 19:49 33.68363 66.13044 39498 ft 534 kts 135°
2026-04-30 19:50 33.66002 66.16546 39370 ft 534 kts 135°
2026-04-30 19:50 33.63663 66.20013 39388 ft 535 kts 135°
2026-04-30 19:50 33.59020 66.26880 39365 ft 536 kts 135°
2026-04-30 19:51 33.54332 66.33808 39363 ft 531 kts 135°
2026-04-30 19:51 33.49653 66.40701 39377 ft 536 kts 135°
2026-04-30 19:52 33.44902 66.47688 39401 ft 535 kts 134°
2026-04-30 19:52 33.40190 66.54577 39433 ft 534 kts 135°
2026-04-30 19:53 33.35474 66.61454 39447 ft 535 kts 134°
2026-04-30 19:53 33.30838 66.68206 39442 ft 532 kts 135°
2026-04-30 19:54 33.26122 66.75061 39437 ft 533 kts 135°
2026-04-30 19:54 33.21411 66.81895 39449 ft 533 kts 135°
2026-04-30 19:55 33.16688 66.88735 39461 ft 533 kts 135°
2026-04-30 19:55 33.11936 66.95603 39467 ft 532 kts 135°
2026-04-30 19:56 33.07216 67.02414 39469 ft 532 kts 135°
2026-04-30 19:56 33.02465 67.09255 39453 ft 532 kts 135°
2026-04-30 19:57 32.97703 67.16099 39450 ft 532 kts 134°
2026-04-30 19:57 32.92939 67.22935 39439 ft 533 kts 135°
2026-04-30 19:58 32.88188 67.29739 39414 ft 532 kts 134°
2026-04-30 19:58 32.83514 67.36418 39396 ft 536 kts 134°
2026-04-30 19:59 32.78720 67.43261 39387 ft 533 kts 134°
2026-04-30 20:00 32.71382 67.53290 39346 ft 533 kts 136°
2026-04-30 20:00 32.66488 67.59839 39354 ft 531 kts 136°
2026-04-30 20:01 32.59220 67.69556 39299 ft 531 kts 137°
2026-04-30 20:01 32.54255 67.76189 39285 ft 531 kts 136°
2026-04-30 20:02 32.46977 67.86122 39275 ft 535 kts 134°
2026-04-30 20:03 32.39961 67.96262 39263 ft 535 kts 134°
2026-04-30 20:03 32.35227 68.03070 39275 ft 533 kts 134°
2026-04-30 20:04 32.30503 68.09840 39287 ft 533 kts 134°
2026-04-30 20:05 32.23393 68.19996 39300 ft 533 kts 134°
2026-04-30 20:05 32.16302 68.30094 39303 ft 532 kts 134°
2026-04-30 20:06 32.11587 68.36793 39307 ft 529 kts 133°
2026-04-30 20:06 32.06817 68.43553 39292 ft 531 kts 133°
2026-04-30 20:07 32.02083 68.50253 39278 ft 530 kts 134°
2026-04-30 20:08 31.94963 68.60307 39254 ft 532 kts 133°
2026-04-30 20:08 31.90243 68.66957 39223 ft 529 kts 134°
2026-04-30 20:09 31.85554 68.73552 39222 ft 530 kts 134°
2026-04-30 20:09 31.78534 68.83405 39202 ft 529 kts 134°
2026-04-30 20:10 31.71389 68.93405 39178 ft 529 kts 134°
2026-04-30 20:11 31.64276 69.03456 39194 ft 533 kts 132°
2026-04-30 20:11 31.59713 69.10276 39187 ft 532 kts 131°
2026-04-30 20:12 31.52795 69.20572 39171 ft 533 kts 131°
2026-04-30 20:13 31.48187 69.27402 39141 ft 533 kts 131°
2026-04-30 20:13 31.43571 69.34225 39129 ft 535 kts 131°
2026-04-30 20:14 31.38659 69.40747 39127 ft 528 kts 142°
2026-04-30 20:14 31.32661 69.45546 39138 ft 514 kts 159°
2026-04-30 20:15 31.25936 69.48318 39165 ft 504 kts 173°
2026-04-30 20:15 31.19062 69.50083 39175 ft 502 kts 174°
2026-04-30 20:16 31.12177 69.51814 39163 ft 503 kts 174°
2026-04-30 20:16 31.05314 69.53530 39163 ft 502 kts 174°
2026-04-30 20:17 30.98602 69.55202 39161 ft 505 kts 174°
2026-04-30 20:17 30.91743 69.56905 39152 ft 503 kts 174°
2026-04-30 20:18 30.85037 69.58568 39137 ft 504 kts 174°
2026-04-30 20:18 30.78169 69.60268 39128 ft 501 kts 174°
2026-04-30 20:19 30.71283 69.61968 39127 ft 504 kts 174°
2026-04-30 20:19 30.64407 69.63664 39105 ft 502 kts 174°
2026-04-30 20:20 30.57531 69.65356 39080 ft 502 kts 174°
2026-04-30 20:20 30.50705 69.67034 39063 ft 503 kts 174°
2026-04-30 20:21 30.43792 69.68733 39073 ft 502 kts 174°
2026-04-30 20:21 30.36917 69.70417 39073 ft 504 kts 174°
2026-04-30 20:22 30.29971 69.72118 39070 ft 503 kts 174°
2026-04-30 20:22 30.23162 69.73806 39077 ft 503 kts 172°
2026-04-30 20:23 30.16253 69.75833 39065 ft 507 kts 172°
2026-04-30 20:23 30.09395 69.77856 39053 ft 504 kts 172°
2026-04-30 20:24 30.02567 69.79857 39046 ft 504 kts 172°
2026-04-30 20:24 29.95725 69.81852 39029 ft 503 kts 172°
2026-04-30 20:25 29.85817 69.84731 38995 ft 504 kts 171°
2026-04-30 20:26 29.75736 69.87652 38921 ft 505 kts 172°
2026-04-30 20:26 29.65483 69.90615 38872 ft 503 kts 171°
2026-04-30 20:27 29.51772 69.94567 38802 ft 503 kts 171°
2026-04-30 20:28 29.38102 69.98495 38760 ft 505 kts 171°
2026-04-30 20:30 29.21001 70.03395 38699 ft 503 kts 172°
2026-04-30 20:31 29.00497 70.09246 38627 ft 506 kts 172°
2026-04-30 20:32 28.83458 70.14092 38626 ft 503 kts 172°
2026-04-30 20:33 28.73206 70.16998 38632 ft 504 kts 172°
2026-04-30 20:34 28.62927 70.19907 38635 ft 504 kts 172°
2026-04-30 20:35 28.52665 70.22806 38632 ft 504 kts 172°
2026-04-30 20:35 28.42520 70.26405 38615 ft 513 kts 157°
2026-04-30 20:36 28.36638 70.31136 38616 ft 526 kts 139°
2026-04-30 20:36 28.32103 70.37772 38618 ft 534 kts 120°
2026-04-30 20:37 28.30436 70.41543 38623 ft 535 kts 116°
2026-04-30 20:37 28.27319 70.49008 38617 ft 535 kts 116°
2026-04-30 20:38 28.24120 70.56603 38616 ft 533 kts 116°
2026-04-30 20:38 28.20885 70.64222 38619 ft 535 kts 116°
2026-04-30 20:39 28.16040 70.75562 38610 ft 533 kts 117°
2026-04-30 20:40 28.11167 70.86909 38602 ft 533 kts 117°
2026-04-30 20:40 28.07893 70.94505 38610 ft 534 kts 117°
2026-04-30 20:41 28.02983 71.05871 38623 ft 534 kts 117°
2026-04-30 20:41 27.99703 71.13444 38629 ft 536 kts 117°
2026-04-30 20:42 27.96399 71.21057 38625 ft 536 kts 117°
2026-04-30 20:43 27.91447 71.32439 38636 ft 534 kts 117°
2026-04-30 20:43 27.88191 71.39906 38628 ft 536 kts 117°
2026-04-30 20:44 27.83086 71.51077 38635 ft 536 kts 118°
2026-04-30 20:45 27.76100 71.65918 38638 ft 536 kts 119°
2026-04-30 20:45 27.72620 71.73307 38627 ft 537 kts 119°
2026-04-30 20:46 27.66142 71.83496 38632 ft 529 kts 141°
2026-04-30 20:46 27.63285 71.86090 38631 ft 526 kts 149°
2026-04-30 20:47 27.56805 71.89818 38645 ft 513 kts 167°
2026-04-30 20:47 27.53363 71.90884 38651 ft 505 kts 175°
2026-04-30 20:48 27.42920 71.92306 38666 ft 503 kts 180°
2026-04-30 20:48 27.35945 71.93129 38667 ft 502 kts 180°
2026-04-30 20:49 27.28980 71.93941 38679 ft 501 kts 180°
2026-04-30 20:50 27.18496 71.95155 38680 ft 500 kts 180°
2026-04-30 20:50 27.11809 71.95925 38683 ft 500 kts 180°
2026-04-30 20:51 27.04807 71.96730 38691 ft 502 kts 180°
2026-04-30 20:51 26.94329 71.97933 38693 ft 500 kts 180°
2026-04-30 20:52 26.87417 71.98724 38682 ft 499 kts 180°
2026-04-30 20:53 26.77086 71.99905 38678 ft 501 kts 180°
2026-04-30 20:53 26.70131 72.00699 38677 ft 500 kts 180°
2026-04-30 20:54 26.59686 72.01888 38683 ft 502 kts 180°
2026-04-30 20:55 26.49260 72.03075 38699 ft 500 kts 180°
2026-04-30 20:55 26.42292 72.03866 38706 ft 500 kts 180°
2026-04-30 20:56 26.31856 72.05050 38712 ft 500 kts 180°
2026-04-30 20:57 26.21421 72.06230 38709 ft 501 kts 179°
2026-04-30 20:57 26.14420 72.07022 38713 ft 501 kts 179°
2026-04-30 20:58 26.04051 72.08192 38712 ft 500 kts 179°
2026-04-30 20:58 25.97080 72.08978 38708 ft 500 kts 179°
2026-04-30 20:59 25.86642 72.10152 38694 ft 500 kts 179°
2026-04-30 21:00 25.72738 72.11713 38691 ft 501 kts 179°
2026-04-30 21:01 25.62272 72.12899 38695 ft 500 kts 179°
2026-04-30 21:02 25.52243 72.14049 38700 ft 499 kts 179°
2026-04-30 21:02 25.45298 72.14844 38708 ft 498 kts 179°
2026-04-30 21:03 25.38368 72.15636 38720 ft 497 kts 179°
2026-04-30 21:03 25.31487 72.16420 38720 ft 497 kts 179°
2026-04-30 21:04 25.24597 72.17204 38717 ft 496 kts 180°
2026-04-30 21:04 25.14230 72.17415 38721 ft 492 kts 185°
2026-04-30 21:05 25.07326 72.17448 38727 ft 492 kts 185°
2026-04-30 21:05 25.00450 72.17480 38727 ft 492 kts 185°
2026-04-30 21:06 24.93563 72.17512 38737 ft 493 kts 185°
2026-04-30 21:06 24.86921 72.17542 38735 ft 493 kts 184°
2026-04-30 21:07 24.80163 72.17574 38739 ft 495 kts 184°
2026-04-30 21:07 24.73198 72.17606 38744 ft 493 kts 184°
2026-04-30 21:08 24.66242 72.17639 38748 ft 493 kts 184°
2026-04-30 21:08 24.59385 72.17671 38748 ft 492 kts 184°
2026-04-30 21:09 24.52462 72.17703 38749 ft 492 kts 184°
2026-04-30 21:09 24.45528 72.17735 38749 ft 493 kts 184°
2026-04-30 21:10 24.38730 72.17767 38746 ft 493 kts 184°
2026-04-30 21:10 24.31745 72.17799 38749 ft 492 kts 184°
2026-04-30 21:11 24.24832 72.17831 38750 ft 492 kts 184°
2026-04-30 21:11 24.17949 72.17863 38745 ft 491 kts 184°
2026-04-30 21:12 24.11023 72.17896 38749 ft 491 kts 184°
2026-04-30 21:12 24.04164 72.17927 38748 ft 492 kts 183°
2026-04-30 21:13 23.97239 72.17959 38750 ft 493 kts 183°
2026-04-30 21:13 23.90348 72.17991 38749 ft 492 kts 183°
2026-04-30 21:14 23.83697 72.18021 38742 ft 490 kts 183°
2026-04-30 21:14 23.76947 72.18052 38741 ft 492 kts 183°
2026-04-30 21:15 23.70095 72.18084 38739 ft 491 kts 183°
2026-04-30 21:15 23.63191 72.18115 38739 ft 493 kts 183°
2026-04-30 21:16 23.56300 72.18147 38741 ft 492 kts 183°
2026-04-30 21:16 23.49383 72.18179 38743 ft 491 kts 183°
2026-04-30 21:17 23.42521 72.18210 38748 ft 491 kts 183°
2026-04-30 21:17 23.35582 72.18242 38748 ft 492 kts 183°
2026-04-30 21:18 23.28708 72.18273 38749 ft 492 kts 182°
2026-04-30 21:18 23.21802 72.18304 38750 ft 492 kts 183°
2026-04-30 21:19 23.14928 72.18336 38750 ft 492 kts 183°
2026-04-30 21:19 23.08013 72.18367 38753 ft 492 kts 182°
2026-04-30 21:20 23.01132 72.18398 38754 ft 492 kts 182°
2026-04-30 21:20 22.94188 72.18430 38760 ft 492 kts 182°
2026-04-30 21:21 22.87388 72.18461 38754 ft 492 kts 182°
2026-04-30 21:22 22.77236 72.18507 38759 ft 492 kts 182°
2026-04-30 21:23 22.63656 72.18568 38763 ft 492 kts 182°
2026-04-30 21:23 22.53310 72.18615 38759 ft 491 kts 182°
2026-04-30 21:24 22.46429 72.18646 38762 ft 492 kts 182°
2026-04-30 21:24 22.39507 72.18677 38757 ft 491 kts 182°
2026-04-30 21:25 22.29206 72.18722 38765 ft 491 kts 182°
2026-04-30 21:26 22.18940 72.18768 38759 ft 490 kts 182°
2026-04-30 21:27 22.08600 72.18814 38754 ft 490 kts 182°
2026-04-30 21:27 22.01770 72.18845 38756 ft 491 kts 182°
2026-04-30 21:28 21.91443 72.18891 38755 ft 492 kts 182°
2026-04-30 21:29 21.81189 72.18938 38755 ft 490 kts 182°
2026-04-30 21:29 21.70902 72.20046 38765 ft 497 kts 168°
2026-04-30 21:30 21.64151 72.21809 38772 ft 497 kts 168°
2026-04-30 21:31 21.47216 72.26236 38786 ft 497 kts 168°
2026-04-30 21:32 21.37019 72.28893 38785 ft 497 kts 168°
2026-04-30 21:32 21.30264 72.30650 38785 ft 498 kts 168°
2026-04-30 21:33 21.20133 72.33282 38792 ft 499 kts 168°
2026-04-30 21:34 21.13357 72.35041 38792 ft 499 kts 168°
2026-04-30 21:34 21.03188 72.37677 38798 ft 498 kts 168°
2026-04-30 21:35 20.96407 72.39432 38800 ft 498 kts 168°
2026-04-30 21:35 20.89680 72.41166 38801 ft 499 kts 168°
2026-04-30 21:36 20.82934 72.42894 38796 ft 498 kts 168°
2026-04-30 21:37 20.69405 72.46358 38801 ft 498 kts 168°
2026-04-30 21:37 20.62684 72.48093 38812 ft 497 kts 168°
2026-04-30 21:38 20.55893 72.49844 38813 ft 497 kts 168°
2026-04-30 21:38 20.49101 72.51593 38817 ft 497 kts 168°
2026-04-30 21:39 20.42332 72.53335 38817 ft 498 kts 168°
2026-04-30 21:39 20.35546 72.55080 38831 ft 496 kts 168°
2026-04-30 21:40 20.28812 72.56809 38835 ft 496 kts 168°
2026-04-30 21:40 20.22088 72.58535 38836 ft 496 kts 168°
2026-04-30 21:41 20.15308 72.60273 38840 ft 496 kts 168°
2026-04-30 21:41 20.08568 72.62000 38842 ft 497 kts 168°
2026-04-30 21:42 20.01809 72.63729 38848 ft 496 kts 168°
2026-04-30 21:42 19.95111 72.65442 38841 ft 495 kts 168°
2026-04-30 21:43 19.88461 72.67141 38840 ft 496 kts 168°
2026-04-30 21:43 19.81749 72.68854 38837 ft 496 kts 168°
2026-04-30 21:44 19.75178 72.70530 38834 ft 496 kts 168°
2026-04-30 21:44 19.68401 72.72257 38836 ft 497 kts 168°
2026-04-30 21:45 19.61662 72.73972 38838 ft 497 kts 168°
2026-04-30 21:45 19.54904 72.75691 38838 ft 496 kts 168°
2026-04-30 21:46 19.48168 72.77403 38842 ft 497 kts 168°
2026-04-30 21:46 19.41382 72.79126 38840 ft 497 kts 168°
2026-04-30 21:47 19.34612 72.80844 38837 ft 497 kts 168°
2026-04-30 21:47 19.27851 72.82558 38830 ft 499 kts 168°
2026-04-30 21:48 19.21077 72.84274 38834 ft 497 kts 168°
2026-04-30 21:48 19.14440 72.85953 38833 ft 496 kts 168°
2026-04-30 21:49 19.07678 72.87663 38835 ft 496 kts 168°
2026-04-30 21:49 19.00920 72.89380 38835 ft 496 kts 168°
2026-04-30 21:50 18.94133 72.91103 38837 ft 497 kts 168°
2026-04-30 21:50 18.87479 72.92792 38831 ft 498 kts 168°
2026-04-30 21:51 18.80774 72.94491 38838 ft 497 kts 168°
2026-04-30 21:51 18.74008 72.96204 38844 ft 496 kts 168°
2026-04-30 21:52 18.67259 72.97913 38848 ft 496 kts 168°
2026-04-30 21:52 18.60486 72.99625 38851 ft 496 kts 168°
2026-04-30 21:53 18.53777 73.01319 38859 ft 497 kts 168°
2026-04-30 21:53 18.47030 73.03022 38855 ft 496 kts 168°
2026-04-30 21:54 18.40275 73.04726 38855 ft 496 kts 168°
2026-04-30 21:54 18.33554 73.06419 38851 ft 495 kts 168°
2026-04-30 21:55 18.26785 73.08123 38854 ft 496 kts 167°
2026-04-30 21:55 18.20033 73.09822 38853 ft 494 kts 167°
2026-04-30 21:56 18.13332 73.11507 38860 ft 494 kts 167°
2026-04-30 21:56 18.06592 73.13200 38866 ft 495 kts 167°
2026-04-30 21:57 17.99855 73.14890 38869 ft 494 kts 167°
2026-04-30 21:57 17.93110 73.16582 38872 ft 494 kts 167°
2026-04-30 21:58 17.86526 73.18232 38876 ft 494 kts 167°
2026-04-30 21:58 17.79794 73.19917 38883 ft 494 kts 167°
2026-04-30 21:59 17.73297 73.22401 38884 ft 495 kts 151°
2026-04-30 22:00 17.65383 73.29258 38891 ft 494 kts 133°
2026-04-30 22:00 17.58150 73.37093 38894 ft 493 kts 133°
2026-04-30 22:01 17.53363 73.42275 38888 ft 494 kts 133°
2026-04-30 22:01 17.48567 73.47463 38880 ft 494 kts 133°
2026-04-30 22:02 17.43765 73.52652 38899 ft 494 kts 133°
2026-04-30 22:02 17.38972 73.57828 38922 ft 493 kts 133°
2026-04-30 22:03 17.34174 73.63006 38951 ft 493 kts 133°
2026-04-30 22:03 17.29493 73.68053 38975 ft 493 kts 133°
2026-04-30 22:04 17.24439 73.73498 39015 ft 492 kts 133°
2026-04-30 22:05 17.17243 73.81243 38987 ft 492 kts 134°
2026-04-30 22:05 17.12457 73.86389 38963 ft 491 kts 133°
2026-04-30 22:06 17.07620 73.91585 38950 ft 492 kts 133°
2026-04-30 22:06 17.00440 73.99291 38952 ft 492 kts 133°
2026-04-30 22:07 16.95677 74.04398 38959 ft 491 kts 133°
2026-04-30 22:07 16.90874 74.09544 38957 ft 489 kts 133°
2026-04-30 22:08 16.86466 74.14758 38952 ft 491 kts 127°
2026-04-30 22:08 16.82531 74.19968 38950 ft 491 kts 127°
2026-04-30 22:09 16.78121 74.25805 38950 ft 491 kts 127°
2026-04-30 22:09 16.73880 74.31408 38953 ft 491 kts 127°
2026-04-30 22:10 16.69623 74.37025 38953 ft 490 kts 127°
2026-04-30 22:10 16.65410 74.42577 38957 ft 490 kts 127°
2026-04-30 22:11 16.59048 74.50952 38965 ft 490 kts 127°
2026-04-30 22:12 16.54789 74.56554 38969 ft 490 kts 127°
2026-04-30 22:12 16.50538 74.62139 38969 ft 490 kts 127°
2026-04-30 22:13 16.46654 74.67239 38966 ft 489 kts 127°
2026-04-30 22:13 16.43079 74.71927 38971 ft 489 kts 127°
2026-04-30 22:14 16.38324 74.78159 38973 ft 489 kts 127°
2026-04-30 22:14 16.34093 74.83701 38967 ft 489 kts 127°
2026-04-30 22:15 16.29827 74.89284 38960 ft 488 kts 127°
2026-04-30 22:15 16.25791 74.94563 38959 ft 487 kts 127°
2026-04-30 22:16 16.21529 75.00131 38961 ft 487 kts 127°
2026-04-30 22:17 16.13064 75.11179 38961 ft 488 kts 127°
2026-04-30 22:17 16.06685 75.19493 38962 ft 488 kts 127°
2026-04-30 22:18 16.00318 75.27782 38965 ft 487 kts 127°
2026-04-30 22:19 15.93945 75.36070 38965 ft 488 kts 127°
2026-04-30 22:20 15.87791 75.44064 38959 ft 488 kts 127°
2026-04-30 22:20 15.81365 75.52403 38970 ft 488 kts 127°
2026-04-30 22:21 15.77121 75.57903 38967 ft 486 kts 127°
2026-04-30 22:21 15.72890 75.63385 38957 ft 486 kts 127°
2026-04-30 22:22 15.68707 75.68800 38960 ft 487 kts 127°
2026-04-30 22:22 15.64486 75.74258 38962 ft 486 kts 128°
2026-04-30 22:23 15.60224 75.79768 38968 ft 486 kts 127°
2026-04-30 22:23 15.55994 75.85231 38975 ft 487 kts 127°
2026-04-30 22:24 15.51759 75.90697 38964 ft 486 kts 127°
2026-04-30 22:24 15.47504 75.96184 38966 ft 487 kts 127°
2026-04-30 22:25 15.43235 76.01685 38963 ft 487 kts 127°
2026-04-30 22:25 15.38964 76.07186 38960 ft 487 kts 127°
2026-04-30 22:26 15.32552 76.15437 38953 ft 488 kts 127°
2026-04-30 22:27 15.28286 76.20920 38954 ft 487 kts 127°
2026-04-30 22:27 15.21874 76.29157 38953 ft 488 kts 127°
2026-04-30 22:28 15.14924 76.36878 38955 ft 491 kts 143°
2026-04-30 22:29 15.03617 76.44433 38960 ft 491 kts 146°
2026-04-30 22:30 14.91948 76.52082 38002 ft 493 kts 147°
2026-04-30 22:31 14.83304 76.57737 37123 ft 496 kts 146°
2026-04-30 22:32 14.74510 76.63483 36202 ft 492 kts 146°
2026-04-30 22:32 14.69090 76.67022 34376 ft 496 kts 146°
2026-04-30 22:33 14.60091 76.72895 30704 ft 517 kts 147°
2026-04-30 22:33 14.54079 76.76812 29653 ft 502 kts 147°
2026-04-30 22:34 14.45326 76.82512 27933 ft 487 kts 147°
2026-04-30 22:35 14.39601 76.86239 26809 ft 479 kts 147°
2026-04-30 22:36 14.28190 76.92660 25409 ft 447 kts 154°
2026-04-30 22:36 14.25448 76.94024 24918 ft 462 kts 155°
2026-04-30 22:37 14.16752 76.98350 23247 ft 456 kts 155°
2026-04-30 22:37 14.13912 76.99762 22708 ft 453 kts 155°
2026-04-30 22:37 14.08240 77.02580 21598 ft 447 kts 155°
2026-04-30 22:38 14.02634 77.05364 20503 ft 441 kts 154°
2026-04-30 22:38 13.97098 77.08112 19321 ft 438 kts 154°
2026-04-30 22:39 13.94332 77.09484 18733 ft 436 kts 154°
2026-04-30 22:39 13.86132 77.13550 17035 ft 431 kts 153°
2026-04-30 22:40 13.78046 77.17556 15313 ft 423 kts 153°
2026-04-30 22:41 13.70291 77.21395 13437 ft 396 kts 153°
2026-04-30 22:41 13.65506 77.23762 12325 ft 373 kts 152°
2026-04-30 22:42 13.56097 77.28415 10534 ft 359 kts 152°
2026-04-30 22:43 13.51733 77.30570 10286 ft 336 kts 152°
2026-04-30 22:43 13.47625 77.32597 10013 ft 317 kts 152°
2026-04-30 22:44 13.43696 77.34538 9280 ft 305 kts 152°
2026-04-30 22:45 13.36139 77.38270 7964 ft 301 kts 152°
2026-04-30 22:45 13.32347 77.40143 7321 ft 299 kts 153°
2026-04-30 22:46 13.28688 77.41947 7166 ft 279 kts 153°
2026-04-30 22:47 13.22221 77.45316 6803 ft 242 kts 134°
2026-04-30 22:47 13.20984 77.48268 6505 ft 226 kts 94°
2026-04-30 22:48 13.20858 77.51447 6020 ft 211 kts 89°
2026-04-30 22:49 13.20824 77.55555 5496 ft 190 kts 89°
2026-04-30 22:49 13.20793 77.59475 4734 ft 178 kts 88°
2026-04-30 22:50 13.20756 77.63979 3903 ft 150 kts 88°
2026-04-30 22:51 13.20736 77.66103 3518 ft 148 kts 87°
2026-04-30 22:51 13.20711 77.68201 3144 ft 148 kts 87°
2026-04-30 22:52 13.20707 77.69246 3014 ft 142 kts 87°
2026-04-30 22:52 13.20696 77.70592 2984 ft 44 kts 89°
2026-04-30 22:53 13.20627 77.71013 2952 ft 18 kts 119°
2026-04-30 22:53 13.20528 77.71215 2946 ft 14 kts 98°
2026-04-30 22:53 13.20524 77.71320 2945 ft 15 kts 91°
2026-04-30 22:54 13.20522 77.71572 2942 ft 18 kts 90°
2026-04-30 22:55 13.20465 77.71787 2953 ft 7 kts 176°
2026-04-30 22:55 13.20275 77.71786 2962 ft 16 kts 180°
2026-04-30 22:56 13.20182 77.71699 2967 ft 9 kts 270°
2026-04-30 22:56 13.20126 77.71590 2973 ft 4 kts 178°
2026-04-30 22:57 13.20081 77.71590 2976 ft 0 kts 180°